sat.trackr.live / text

‹ back to catalog

STARLINK-4497

NORAD 53411 · 2022-097Z

PAYLOAD ACTIVE UNKNOWN

§ Identity

Operator
Country
US
Launch date
2022-08-10
Launch site
AFETR
Launch vehicle
Mass (kg)
RCS (m²)

Purposes: comms

External: N2YO · Heavens-Above · Gunter

§ Orbital elements

Epoch: 2026-05-25T05:22:56.464032Z

Period
95.44 min
Inclination
53.2143°
Eccentricity
0.0000956
Mean motion
15.08841190 rev/d
Perigee alt
539.1 km
Apogee alt
540.4 km
Semi-major
6,917.9 km
B*
7.7402e-5
RAAN
130.5430°
Arg perigee
69.3752°
Mean anomaly
290.7343°
Rev number
21,020

§ Raw data

STARLINK-44971 53411U 22097Z   26145.22426463  .00000944  00000+0  77402-4 0  99912 53411  53.2143 130.5430 0000956  69.3752 290.7343 15.08841190210202

JSON: /api/v1/satellites/53411 · /tle

For live sub-satellite position, see the globe view (requires WebGL).

§ Visibility from observer

Set your observer location to see the next 7 days of passes ≥ 10°. The values pass through the URL so the page stays shareable.

No JS? Fill the form by hand. The geolocation button needs JavaScript.